{"data":{"norad_id":68498,"epoch":"2026-05-24T09:16:51.706848Z","epoch_age_seconds":121336,"freshness":"FRESH","line1":"1 68498U 26067CL  26144.38670957  .00001043  00000+0  11008-3 0  9998","line2":"2 68498  97.7535 102.9413 0003831 119.9707 240.1892 14.91389090  8178","mean_motion":14.9138909,"eccentricity":0.0003831,"inclination_deg":97.7535,"raan_deg":102.9413,"arg_perigee_deg":119.9707,"mean_anomaly_deg":240.1892,"bstar":0.00011008,"rev_number":817,"period_min":96.554280144292,"perigee_km":590.93241099032,"apogee_km":596.27415839645,"semimajor_km":6971.7402846934,"source":"CELESTRAK","updated_at":"2026-05-25T13:38:07.878237Z"}}